Regional Weather Roundup
Issued by NWS Charleston, SC

Current Version | Previous Version | Graphics & Text | Print | Product List | Glossary On
Versions: 1 2 3 4 5 6 7 8 9 10 11 12 13 14 15 16 17 18 19 20 21 22 23 24 25 26 27 28 29 30 31 32 33 34 35 36 37 38 39 40 41 42 43 44 45 46 47 48 49 50
000
ASUS42 KCHS 280727
RWRCHS

REGIONAL WEATHER ROUNDUP
NATIONAL WEATHER SERVICE CHARLESTON SC
300 AM EDT FRI APR 28 2017

NOTE: "FAIR" INDICATES FEW OR NO CLOUDS BELOW 12,000 FEET WITH NO
SIGNIFICANT WEATHER AND/OR OBSTRUCTIONS TO VISIBILITY.

NOT ALL STATIONS ARE QUALITY CONTROLLED. USE DATA WITH CAUTION...
ESPECIALLY DEWPOINT OBSERVATIONS.

SCZ027-030-031-034>040-042>050-280800-
...SOUTHEAST SOUTH CAROLINA...

CITY           SKY/WX    TMP DP  RH WIND       PRES   REMARKS
N CHARLESTON   CLOUDY    75  71  87 SW9       29.97R
WATERFRONT PRK   N/A     75  74  97 SW7       29.95R
JOHNS ISLAND   CLOUDY    75  75 100 SW8       29.98S
PINOPOLIS        N/A     75  72  88 S5        29.89R
MONCKS CORNER  PTSUNNY   73  70  88 S6        29.97R
SUMMERVILLE    FAIR      73  72  94 CALM      29.98R
BEAUFORT MCAS  PTCLDY    74  74 100 SW3       29.97R
BEAUFORT ARPT  FAIR      73  72  94 SW3       29.97R
HILTON HEAD IS CLOUDY    75  75 100 S8        29.98R
WALTERBORO     CLOUDY    72  70  94 CALM      29.97F
ALLENDALE      FAIR      68  66  94 CALM      29.95R

...SOUTHERN MIDLANDS AND PEE DEE...

CITY           SKY/WX    TMP DP  RH WIND       PRES   REMARKS
GEORGETOWN     PTSUNNY   73  72  94 SW8       29.99S
KINGSTREE      CLOUDY    72  68  88 S6        29.96S
ORANGEBURG     CLOUDY    70  65  84 S7        29.95S
BARNWELL       FAIR      73  66  78 S3        29.95S
AIKEN          FAIR      66  64  94 S6        29.98S
MANNING        FAIR      72  68  88 S23       29.96S
COLUMBIA       CLEAR     71  62  73 S6        29.93S
SUMTER         CLOUDY    73  65  75 S8        29.93R
FLORENCE       CLOUDY    73  69  87 S8        29.94S
MYRTLE BEACH   CLOUDY    73  72  96 S10       29.99R
N MYRTLE BEACH CLOUDY    73  72  96 SW12      29.98R

$$

GAZ063-065-086>088-099>101-113>116-118-119-134>141-150-280800-
...SOUTHEAST GEORGIA...

CITY           SKY/WX    TMP DP  RH WIND       PRES   REMARKS
SAVANNAH ARPT  CLOUDY    72  68  87 CALM      29.97R
HUNTER AAF     CLOUDY    74  74 100 CALM      29.94R
FORT STEWART   PTCLDY    71  68  89 CALM      29.94R
STATESBORO     CLEAR     68  66  92 CALM      29.96R
SYLVANIA       SUNNY    N/A N/A N/A CALM      29.96S
CLAXTON        FAIR     N/A N/A N/A CALM      29.96S

...CSRA...CENTRAL AND FAR SOUTHEAST GEORGIA...

CITY           SKY/WX    TMP DP  RH WIND       PRES   REMARKS
THOMSON        CLOUDY    67  66  97 CALM      29.98S FOG
AUGUSTA-BUSH   CLEAR     66  65  96 S3        29.93S FOG
AUGUSTA-DANIEL CLEAR     71  65  81 SE3       29.94S
SWAINSBORO     FAIR      68  68 100 CALM      29.95S
VIDALIA        CLEAR     72  66  83 S5        29.95F
EASTMAN        FAIR      70  70 100 CALM      29.96S
HAZLEHURST     FAIR      71  71 100 CALM      29.94S
ALMA           PTCLDY    66  66 100 CALM      29.95S FOG
WAYCROSS       CLEAR     69  69 100 CALM      29.96S
JESUP          FAIR      68  63  83 CALM      29.96S
BAXLEY         FAIR      70  70 100 CALM      29.95F
BRUNSWICK      FOG       68  68 100 CALM      29.97S VSB 1/4
SAINT SIMONS   PTCLDY    73  70  90 S3        29.96R

$$

SCZ027-028-034-036>038-045-046-048>050-GAZ119-141-280800-
...LAKE AND SUPPLEMENTAL COASTAL OBSERVATIONS...

STATION/POSITION TIME  TEMP    WIND        PRES    WAVE   SWELL
                       AIR SEA DIR/SP/G            HT/PER HT/PER/DIR
                 (UTC) (F)     (DEG/KT/KT) (MB)    (FT/S) (FT/S/D)
WINYAH BAY       0645   74     210/ 10     1015.0S
LAKE MURRAY      0630   71     190/  2/  4 1012.9S
ACE BASIN NERRS  0645   75        CALM     1015.0R
FORT PULASKI     0700   74 75  240/  4/  6 1015.1
SAPELO ISLAND    0600   74     170/  6     1014.0

$$

ANZ835-935-AMZ111-154-330-350-352-354-370-450-454-472-280800-
...C-MAN AND BUOY OBSERVATIONS...

STATION/POSITION TIME  TEMP    WIND        PRES    WAVE   SWELL
                       AIR SEA DIR/SP/G            HT/PER HT/PER/DIR
                 (UTC) (F)     (DEG/KT/KT) (MB)    (FT/S) (FT/S/D)
BUOY 41004       0710   75 74  200/ 14/ 16 1015.4
BUOY 41008       0650   74 73  180/ 12/ 14 1014.4R   3/ 9   2/110/ 9
FOLLY BEACH CMAN 0700   74     210/  9/ 10 1015.7R
CAPERS NEARSHORE 0608   74 73  210/ 10/ 14 1014.7R
FRIPP NEARSHORE  0608   74 73  200/ 16/ 17 1013.9R


STATION/POSITION TIME  TEMP    WIND        PRES    WAVE   SWELL
                       AIR SEA DIR/SP/G            HT/PER HT/PER/DIR
                 (UTC) (F)     (DEG/KT/KT) (MB)    (FT/S) (FT/S/D)
5E ST. MARYS GA  0700      74                N/A     3/ 5
FRYING PAN BUOY  0710   75 72  180/ 12/ 16 1015.4
BUOY 41025       0650   77 77  200/ 19/ 23 1015.6F   6/ 8   2/ 90/11
CAPE LOOKOUT NC  0700   73     190/ 13/ 15 1015.1R
BUOY 41002       0650   74 75  180/ 14/ 16 1018.5F   4/ 8   3/ 80/ 8
BUOY 41010       0710   78 78  150/ 14/ 17 1016.1
ST AUGUSTINE FL  0700   74 76  220/  5/  6 1015.4F


$$




USA.gov is the U.S. government's official web portal to all federal, state and local government web resources and services.